WZZ527D EETN-EPKK

Flight info

Callsign WZZ527D
Flight time 1h 38m
Altitude 34000
Route NITSO DCT DOLAT DCT ROLAV DCT BOKSU DCT UNPEG DCT BULEP DCT EVINA M66 KUKAM
Aircraft A21N/M-SDE2E3FGHIRWXY/LB1

Departure

Time 2026-05-06 17:20
Airport Lennart Meri Tallinn Airport (EETN)

Arrival

Time 2026-05-06 18:59
Airport Kraków John Paul II International Airport (EPKK)
Time Latitude Longitude Altitude Speed Heading
2026-05-06 17:01 59.41582 24.80277 167 ft 0 kts
2026-05-06 17:09 59.41569 24.80277 167 ft 4 kts
2026-05-06 17:10 59.41543 24.80270 167 ft 4 kts 22°
2026-05-06 17:10 59.41528 24.80245 167 ft 3 kts 88°
2026-05-06 17:10 59.41528 24.80239 167 ft 0 kts 91°
2026-05-06 17:12 59.41528 24.80241 167 ft 1 kts 90°
2026-05-06 17:13 59.41528 24.80297 167 ft 8 kts 90°
2026-05-06 17:13 59.41524 24.80439 167 ft 13 kts 98°
2026-05-06 17:13 59.41507 24.80638 167 ft 16 kts 93°
2026-05-06 17:13 59.41508 24.80876 167 ft 18 kts 90°
2026-05-06 17:14 59.41505 24.81134 167 ft 20 kts 90°
2026-05-06 17:14 59.41505 24.81414 167 ft 21 kts 90°
2026-05-06 17:14 59.41504 24.81714 167 ft 23 kts 90°
2026-05-06 17:14 59.41503 24.82030 167 ft 24 kts 90°
2026-05-06 17:15 59.41502 24.82362 167 ft 24 kts 90°
2026-05-06 17:15 59.41500 24.82699 167 ft 25 kts 91°
2026-05-06 17:15 59.41501 24.83055 167 ft 27 kts 89°
2026-05-06 17:15 59.41499 24.83409 167 ft 22 kts 90°
2026-05-06 17:16 59.41498 24.83714 167 ft 23 kts 90°
2026-05-06 17:16 59.41498 24.84038 167 ft 24 kts 90°
2026-05-06 17:16 59.41496 24.84380 167 ft 26 kts 90°
2026-05-06 17:16 59.41495 24.84707 167 ft 24 kts 90°
2026-05-06 17:17 59.41494 24.85046 167 ft 25 kts 90°
2026-05-06 17:17 59.41494 24.85398 167 ft 26 kts 90°
2026-05-06 17:17 59.41493 24.85765 167 ft 28 kts 90°
2026-05-06 17:17 59.41492 24.86149 167 ft 28 kts 90°
2026-05-06 17:18 59.41492 24.86482 167 ft 18 kts 90°
2026-05-06 17:18 59.41495 24.86676 167 ft 13 kts 72°
2026-05-06 17:18 59.41469 24.86846 167 ft 14 kts 146°
2026-05-06 17:18 59.41368 24.86879 168 ft 16 kts 199°
2026-05-06 17:19 59.41317 24.86695 168 ft 17 kts 269°
2026-05-06 17:19 59.41317 24.86398 165 ft 43 kts 270°
2026-05-06 17:19 59.41320 24.85288 170 ft 117 kts 270°
2026-05-06 17:19 59.41326 24.83277 204 ft 171 kts 271°
2026-05-06 17:20 59.41330 24.80822 622 ft 184 kts 271°
2026-05-06 17:20 59.41277 24.78296 1386 ft 185 kts 268°
2026-05-06 17:20 59.41087 24.75746 1940 ft 199 kts 250°
2026-05-06 17:20 59.40146 24.73645 2354 ft 224 kts 210°
2026-05-06 17:21 59.38555 24.72948 2770 ft 249 kts 175°
2026-05-06 17:21 59.36830 24.73649 3538 ft 258 kts 166°
2026-05-06 17:21 59.35076 24.74532 4459 ft 261 kts 166°
2026-05-06 17:21 59.33292 24.75378 5360 ft 265 kts 167°
2026-05-06 17:22 59.31480 24.76193 6241 ft 269 kts 167°
2026-05-06 17:22 59.29639 24.76996 7098 ft 273 kts 167°
2026-05-06 17:22 59.27792 24.77783 7919 ft 277 kts 168°
2026-05-06 17:22 59.25896 24.78580 8721 ft 281 kts 168°
2026-05-06 17:23 59.23965 24.79388 9506 ft 285 kts 168°
2026-05-06 17:23 59.22004 24.80206 10212 ft 293 kts 168°
2026-05-06 17:23 59.19938 24.81061 10567 ft 314 kts 170°
2026-05-06 17:23 59.17734 24.81969 10873 ft 334 kts 171°
2026-05-06 17:24 59.15392 24.82932 11153 ft 354 kts 171°
2026-05-06 17:24 59.12915 24.83949 11454 ft 372 kts 171°
2026-05-06 17:24 59.10359 24.85001 12048 ft 379 kts 172°
2026-05-06 17:24 59.07756 24.86072 12747 ft 382 kts 172°
2026-05-06 17:25 59.05153 24.87140 13442 ft 384 kts 173°
2026-05-06 17:25 59.02571 24.88196 14120 ft 385 kts 173°
2026-05-06 17:25 58.99906 24.89284 14786 ft 387 kts 173°
2026-05-06 17:25 58.97304 24.90346 15439 ft 389 kts 173°
2026-05-06 17:26 58.94653 24.91428 16107 ft 390 kts 174°
2026-05-06 17:26 58.91988 24.92509 16779 ft 392 kts 174°
2026-05-06 17:26 58.89312 24.93592 17458 ft 394 kts 174°
2026-05-06 17:26 58.86625 24.94678 18119 ft 395 kts 174°
2026-05-06 17:27 58.83936 24.95764 18742 ft 396 kts 174°
2026-05-06 17:27 58.81218 24.96772 19299 ft 397 kts 178°
2026-05-06 17:27 58.78478 24.97104 19844 ft 394 kts 185°
2026-05-06 17:27 58.75722 24.97149 20367 ft 397 kts 186°
2026-05-06 17:28 58.72956 24.97168 20877 ft 400 kts 186°
2026-05-06 17:28 58.70152 24.97196 21370 ft 403 kts 186°
2026-05-06 17:28 58.67341 24.97236 21847 ft 406 kts 186°
2026-05-06 17:28 58.64503 24.97283 22330 ft 409 kts 186°
2026-05-06 17:29 58.61651 24.97330 22795 ft 411 kts 186°
2026-05-06 17:29 58.58775 24.97378 23240 ft 415 kts 186°
2026-05-06 17:29 58.55877 24.97427 23693 ft 417 kts 186°
2026-05-06 17:29 58.53003 24.97476 24107 ft 420 kts 186°
2026-05-06 17:30 58.50073 24.97527 24544 ft 423 kts 186°
2026-05-06 17:30 58.47121 24.97580 24957 ft 425 kts 186°
2026-05-06 17:30 58.44151 24.97631 25364 ft 428 kts 186°
2026-05-06 17:30 58.41165 24.97684 25747 ft 431 kts 186°
2026-05-06 17:31 58.38165 24.97736 26146 ft 432 kts 186°
2026-05-06 17:31 58.35156 24.97787 26621 ft 432 kts 186°
2026-05-06 17:31 58.32150 24.97838 27092 ft 431 kts 186°
2026-05-06 17:31 58.29154 24.97889 27569 ft 430 kts 186°
2026-05-06 17:32 58.26163 24.97941 28029 ft 429 kts 186°
2026-05-06 17:32 58.23178 24.97991 28443 ft 429 kts 186°
2026-05-06 17:32 58.20196 24.98039 28850 ft 429 kts 186°
2026-05-06 17:32 58.17220 24.98090 29242 ft 428 kts 186°
2026-05-06 17:33 58.14276 24.98140 29626 ft 428 kts 186°
2026-05-06 17:33 58.11300 24.98191 30034 ft 427 kts 186°
2026-05-06 17:33 58.08332 24.98240 30398 ft 426 kts 186°
2026-05-06 17:33 58.05366 24.98289 30800 ft 425 kts 186°
2026-05-06 17:34 58.02422 24.98251 31186 ft 420 kts 189°
2026-05-06 17:34 57.99564 24.97506 31565 ft 409 kts 199°
2026-05-06 17:34 57.96836 24.96048 31881 ft 406 kts 202°
2026-05-06 17:34 57.94142 24.94422 32123 ft 407 kts 202°
2026-05-06 17:35 57.91442 24.92793 32449 ft 406 kts 202°
2026-05-06 17:35 57.88756 24.91214 32778 ft 405 kts 202°
2026-05-06 17:35 57.86065 24.89649 33126 ft 403 kts 202°
2026-05-06 17:36 57.80730 24.86572 33779 ft 399 kts 202°
2026-05-06 17:36 57.78977 24.85564 33930 ft 398 kts 202°
2026-05-06 17:36 57.72829 24.82021 33978 ft 396 kts 202°
2026-05-06 17:37 57.67563 24.78981 33961 ft 396 kts 202°
2026-05-06 17:37 57.63140 24.76457 33959 ft 396 kts 202°
2026-05-06 17:38 57.57920 24.73496 33967 ft 396 kts 201°
2026-05-06 17:38 57.52647 24.70506 33963 ft 396 kts 201°
2026-05-06 17:39 57.47364 24.67489 33962 ft 396 kts 201°
2026-05-06 17:39 57.42090 24.64503 33961 ft 396 kts 201°
2026-05-06 17:40 57.36816 24.61531 33960 ft 396 kts 201°
2026-05-06 17:40 57.31537 24.58578 33949 ft 396 kts 201°
2026-05-06 17:41 57.26257 24.55630 33950 ft 396 kts 201°
2026-05-06 17:41 57.20974 24.52681 33948 ft 396 kts 201°
2026-05-06 17:42 57.15697 24.49743 33950 ft 397 kts 201°
2026-05-06 17:42 57.10403 24.46807 33950 ft 397 kts 201°
2026-05-06 17:43 57.05140 24.43893 33949 ft 397 kts 201°
2026-05-06 17:43 56.99805 24.40946 33950 ft 398 kts 201°
2026-05-06 17:44 56.94539 24.38053 33945 ft 398 kts 201°
2026-05-06 17:44 56.89229 24.35141 33955 ft 398 kts 201°
2026-05-06 17:45 56.83919 24.32237 33948 ft 398 kts 200°
2026-05-06 17:45 56.78609 24.29342 33945 ft 399 kts 200°
2026-05-06 17:46 56.73291 24.26451 33946 ft 398 kts 200°
2026-05-06 17:46 56.67970 24.23566 33948 ft 399 kts 200°
2026-05-06 17:47 56.62647 24.20689 33952 ft 399 kts 200°
2026-05-06 17:47 56.57322 24.17820 33941 ft 399 kts 200°
2026-05-06 17:48 56.52028 24.14977 33935 ft 399 kts 200°
2026-05-06 17:48 56.46666 24.12106 33932 ft 399 kts 200°
2026-05-06 17:49 56.41337 24.09260 33932 ft 399 kts 199°
2026-05-06 17:49 56.36011 24.06423 33926 ft 399 kts 199°
2026-05-06 17:50 56.30719 24.03613 33921 ft 400 kts 199°
2026-05-06 17:50 56.25368 24.00836 33913 ft 400 kts 199°
2026-05-06 17:51 56.20017 23.98104 33911 ft 400 kts 199°
2026-05-06 17:51 56.14666 23.95373 33904 ft 400 kts 199°
2026-05-06 17:52 56.09316 23.92647 33894 ft 399 kts 199°
2026-05-06 17:52 56.03968 23.89929 33888 ft 399 kts 199°
2026-05-06 17:53 55.98625 23.87221 33880 ft 399 kts 199°
2026-05-06 17:53 55.93274 23.84516 33885 ft 399 kts 199°
2026-05-06 17:54 55.87928 23.81823 33896 ft 399 kts 199°
2026-05-06 17:54 55.82617 23.79154 33899 ft 399 kts 199°
2026-05-06 17:55 55.77297 23.76490 33899 ft 400 kts 199°
2026-05-06 17:55 55.71900 23.73794 33900 ft 400 kts 199°
2026-05-06 17:56 55.66541 23.71125 33887 ft 400 kts 199°
2026-05-06 17:56 55.61173 23.68457 33889 ft 400 kts 198°
2026-05-06 17:57 55.55802 23.65797 33885 ft 401 kts 198°
2026-05-06 17:57 55.50424 23.63142 33878 ft 401 kts 198°
2026-05-06 17:58 55.45043 23.60491 33872 ft 402 kts 198°
2026-05-06 17:58 55.39647 23.57843 33863 ft 402 kts 198°
2026-05-06 17:59 55.34252 23.55201 33853 ft 403 kts 198°
2026-05-06 17:59 55.28846 23.52559 33842 ft 403 kts 198°
2026-05-06 18:00 55.23428 23.49922 33833 ft 404 kts 198°
2026-05-06 18:00 55.18042 23.47307 33821 ft 404 kts 198°
2026-05-06 18:01 55.12615 23.44679 33815 ft 405 kts 198°
2026-05-06 18:01 55.07172 23.42052 33811 ft 406 kts 198°
2026-05-06 18:02 55.01720 23.39428 33805 ft 406 kts 198°
2026-05-06 18:02 54.96270 23.36811 33802 ft 406 kts 198°
2026-05-06 18:03 54.90813 23.34199 33801 ft 407 kts 198°
2026-05-06 18:03 54.85363 23.31597 33795 ft 407 kts 198°
2026-05-06 18:04 54.79878 23.28985 33790 ft 408 kts 198°
2026-05-06 18:04 54.74433 23.26400 33790 ft 408 kts 198°
2026-05-06 18:05 54.68937 23.23799 33791 ft 409 kts 198°
2026-05-06 18:05 54.63447 23.21209 33790 ft 409 kts 198°
2026-05-06 18:06 54.57952 23.18621 33790 ft 409 kts 198°
2026-05-06 18:06 54.52453 23.16040 33791 ft 410 kts 198°
2026-05-06 18:07 54.46956 23.13467 33791 ft 409 kts 198°
2026-05-06 18:07 54.41474 23.10908 33791 ft 410 kts 198°
2026-05-06 18:08 54.35975 23.08345 33789 ft 410 kts 198°
2026-05-06 18:08 54.30465 23.05788 33791 ft 410 kts 198°
2026-05-06 18:09 54.24953 23.03292 33792 ft 409 kts 198°
2026-05-06 18:09 54.19463 23.00822 33788 ft 408 kts 198°
2026-05-06 18:10 54.13964 22.98350 33792 ft 408 kts 198°
2026-05-06 18:10 54.08469 22.95888 33790 ft 408 kts 198°
2026-05-06 18:11 54.03013 22.93446 33790 ft 408 kts 198°
2026-05-06 18:11 53.97524 22.90998 33789 ft 409 kts 198°
2026-05-06 18:12 53.91996 22.88540 33792 ft 411 kts 198°
2026-05-06 18:12 53.86450 22.86078 33782 ft 412 kts 198°
2026-05-06 18:13 53.80907 22.83624 33779 ft 412 kts 198°
2026-05-06 18:13 53.75368 22.81182 33782 ft 412 kts 198°
2026-05-06 18:14 53.69817 22.78740 33781 ft 412 kts 198°
2026-05-06 18:14 53.64314 22.76325 33782 ft 412 kts 198°
2026-05-06 18:15 53.58766 22.73897 33780 ft 412 kts 198°
2026-05-06 18:15 53.53221 22.71475 33780 ft 412 kts 198°
2026-05-06 18:16 53.47676 22.69060 33781 ft 412 kts 198°
2026-05-06 18:16 53.42126 22.66655 33757 ft 412 kts 198°
2026-05-06 18:17 53.36575 22.64253 33763 ft 412 kts 198°
2026-05-06 18:17 53.31024 22.61855 33760 ft 412 kts 198°
2026-05-06 18:18 53.25461 22.59485 33763 ft 413 kts 197°
2026-05-06 18:18 53.19840 22.57400 33762 ft 414 kts 196°
2026-05-06 18:19 53.14206 22.55343 33761 ft 414 kts 196°
2026-05-06 18:19 53.08577 22.53287 33765 ft 414 kts 196°
2026-05-06 18:20 53.02945 22.51235 33759 ft 415 kts 196°
2026-05-06 18:20 52.97339 22.49197 33763 ft 415 kts 196°
2026-05-06 18:21 52.91696 22.47154 33752 ft 415 kts 196°
2026-05-06 18:21 52.86046 22.45110 33754 ft 416 kts 196°
2026-05-06 18:22 52.80402 22.43019 33770 ft 415 kts 199°
2026-05-06 18:22 52.75270 22.38963 33769 ft 408 kts 218°
2026-05-06 18:23 52.71080 22.32670 33766 ft 407 kts 225°
2026-05-06 18:23 52.66981 22.26224 33767 ft 407 kts 224°
2026-05-06 18:24 52.62853 22.19830 33770 ft 407 kts 224°
2026-05-06 18:24 52.58714 22.13459 33755 ft 407 kts 224°
2026-05-06 18:25 52.55280 22.08189 33762 ft 407 kts 224°
2026-05-06 18:25 52.51139 22.01843 33770 ft 407 kts 224°
2026-05-06 18:26 52.46995 21.95518 33761 ft 406 kts 224°
2026-05-06 18:26 52.42847 21.89201 33757 ft 406 kts 224°
2026-05-06 18:27 52.38685 21.82952 33770 ft 407 kts 220°
2026-05-06 18:27 52.34121 21.77556 33769 ft 407 kts 217°
2026-05-06 18:28 52.29486 21.72227 33755 ft 408 kts 217°
2026-05-06 18:28 52.24865 21.66873 33761 ft 407 kts 217°
2026-05-06 18:29 52.20241 21.61519 33761 ft 407 kts 217°
2026-05-06 18:29 52.15611 21.56172 33758 ft 407 kts 217°
2026-05-06 18:30 52.10988 21.50843 33754 ft 407 kts 217°
2026-05-06 18:30 52.06355 21.45521 33759 ft 408 kts 217°
2026-05-06 18:31 52.01724 21.40214 33755 ft 407 kts 217°
2026-05-06 18:31 51.97093 21.34918 33756 ft 409 kts 217°
2026-05-06 18:32 51.92440 21.29615 33763 ft 409 kts 217°
2026-05-06 18:32 51.87773 21.24308 33768 ft 410 kts 217°
2026-05-06 18:33 51.83106 21.19014 33765 ft 410 kts 217°
2026-05-06 18:33 51.78437 21.13733 33767 ft 410 kts 217°
2026-05-06 18:34 51.73794 21.08492 33766 ft 410 kts 217°
2026-05-06 18:34 51.69110 21.03215 33753 ft 410 kts 217°
2026-05-06 18:35 51.64428 20.97959 33758 ft 410 kts 217°
2026-05-06 18:35 51.59736 20.92705 33760 ft 411 kts 217°
2026-05-06 18:36 51.55051 20.87475 33767 ft 411 kts 217°
2026-05-06 18:36 51.50258 20.82475 33756 ft 410 kts 214°
2026-05-06 18:37 51.47656 20.80519 33759 ft 416 kts 203°
2026-05-06 18:37 51.44906 20.79043 33763 ft 417 kts 201°
2026-05-06 18:37 51.39388 20.76176 33765 ft 417 kts 202°
2026-05-06 18:38 51.33869 20.73308 33752 ft 421 kts 197°
2026-05-06 18:38 51.30920 20.72717 33666 ft 436 kts 185°
2026-05-06 18:38 51.27847 20.72984 33450 ft 448 kts 179°
2026-05-06 18:39 51.24737 20.73581 33196 ft 451 kts 177°
2026-05-06 18:39 51.21622 20.74269 33017 ft 451 kts 176°
2026-05-06 18:40 51.12360 20.76387 32503 ft 440 kts 176°
2026-05-06 18:40 51.09367 20.77075 32002 ft 435 kts 176°
2026-05-06 18:40 51.06366 20.77767 31267 ft 426 kts 176°
2026-05-06 18:40 51.03447 20.78436 30368 ft 420 kts 176°
2026-05-06 18:41 51.00610 20.79072 29486 ft 414 kts 176°
2026-05-06 18:41 50.97777 20.79693 28593 ft 409 kts 176°
2026-05-06 18:41 50.94970 20.80299 27901 ft 406 kts 176°
2026-05-06 18:41 50.92180 20.80897 27189 ft 402 kts 176°
2026-05-06 18:42 50.89416 20.81485 26387 ft 397 kts 176°
2026-05-06 18:42 50.86689 20.81850 25585 ft 389 kts 185°
2026-05-06 18:42 50.84027 20.81249 24419 ft 388 kts 199°
2026-05-06 18:42 50.81552 20.79534 23092 ft 392 kts 212°
2026-05-06 18:43 50.79235 20.77158 21755 ft 402 kts 215°
2026-05-06 18:43 50.76885 20.74653 20337 ft 413 kts 215°
2026-05-06 18:43 50.74476 20.72120 19258 ft 415 kts 214°
2026-05-06 18:43 50.72077 20.69644 18316 ft 411 kts 214°
2026-05-06 18:44 50.69707 20.67211 17373 ft 404 kts 214°
2026-05-06 18:44 50.67369 20.64814 16181 ft 396 kts 214°
2026-05-06 18:44 50.65073 20.62470 14930 ft 391 kts 214°
2026-05-06 18:44 50.62831 20.60184 13691 ft 385 kts 214°
2026-05-06 18:45 50.60599 20.57912 12599 ft 377 kts 214°
2026-05-06 18:45 50.58407 20.55689 11845 ft 364 kts 214°
2026-05-06 18:45 50.56342 20.53595 11326 ft 349 kts 214°
2026-05-06 18:45 50.54352 20.51582 11007 ft 330 kts 214°
2026-05-06 18:46 50.52472 20.49682 10757 ft 312 kts 214°
2026-05-06 18:46 50.50700 20.47892 10539 ft 294 kts 214°
2026-05-06 18:46 50.49028 20.46205 10318 ft 278 kts 214°
2026-05-06 18:46 50.47434 20.44597 10072 ft 268 kts 214°
2026-05-06 18:47 50.45887 20.43037 9808 ft 261 kts 214°
2026-05-06 18:47 50.44397 20.41534 9475 ft 261 kts 214°
2026-05-06 18:47 50.42832 20.39951 9109 ft 261 kts 214°
2026-05-06 18:47 50.41303 20.38408 8754 ft 262 kts 214°
2026-05-06 18:48 50.39771 20.36865 8393 ft 262 kts 213°
2026-05-06 18:48 50.38235 20.35322 8043 ft 262 kts 213°
2026-05-06 18:48 50.36702 20.33783 7711 ft 262 kts 213°
2026-05-06 18:48 50.35167 20.32240 7381 ft 261 kts 213°
2026-05-06 18:49 50.33644 20.30713 7046 ft 260 kts 213°
2026-05-06 18:49 50.32121 20.29190 6695 ft 260 kts 213°
2026-05-06 18:49 50.30598 20.27665 6346 ft 259 kts 213°
2026-05-06 18:49 50.29077 20.26144 6059 ft 263 kts 213°
2026-05-06 18:50 50.27549 20.24615 5981 ft 264 kts 213°
2026-05-06 18:50 50.26044 20.23113 5977 ft 247 kts 213°
2026-05-06 18:50 50.24636 20.21708 5986 ft 228 kts 213°
2026-05-06 18:50 50.23366 20.20444 5975 ft 209 kts 213°
2026-05-06 18:51 50.22186 20.19265 5966 ft 189 kts 214°
2026-05-06 18:51 50.21103 20.18184 5976 ft 188 kts 214°
2026-05-06 18:51 50.20005 20.17092 5980 ft 185 kts 214°
2026-05-06 18:51 50.18924 20.16018 5657 ft 183 kts 213°
2026-05-06 18:52 50.17850 20.14950 5253 ft 183 kts 213°
2026-05-06 18:52 50.16770 20.13873 4841 ft 184 kts 213°
2026-05-06 18:52 50.15685 20.12799 4424 ft 186 kts 213°
2026-05-06 18:52 50.14595 20.11717 4083 ft 184 kts 212°
2026-05-06 18:53 50.13470 20.10594 3985 ft 191 kts 212°
2026-05-06 18:53 50.12432 20.09532 4017 ft 167 kts 218°
2026-05-06 18:53 50.11813 20.08146 3901 ft 158 kts 252°
2026-05-06 18:53 50.11616 20.06453 3650 ft 159 kts 257°
2026-05-06 18:54 50.11387 20.04797 3379 ft 150 kts 256°
2026-05-06 18:54 50.11178 20.03262 3103 ft 142 kts 256°
2026-05-06 18:54 50.10979 20.01768 2990 ft 141 kts 255°
2026-05-06 18:54 50.10773 20.00273 3002 ft 141 kts 255°
2026-05-06 18:55 50.10569 19.98780 3006 ft 141 kts 256°
2026-05-06 18:55 50.10364 19.97286 3005 ft 141 kts 255°
2026-05-06 18:55 50.10147 19.95800 2845 ft 141 kts 255°
2026-05-06 18:55 50.09944 19.94304 2640 ft 142 kts 256°
2026-05-06 18:56 50.09738 19.92796 2449 ft 142 kts 257°
2026-05-06 18:56 50.09530 19.91285 2251 ft 143 kts 257°
2026-05-06 18:56 50.09326 19.89785 2066 ft 142 kts 258°
2026-05-06 18:56 50.09125 19.88292 1877 ft 140 kts 259°
2026-05-06 18:57 50.08929 19.86812 1688 ft 139 kts 259°
2026-05-06 18:57 50.08732 19.85362 1502 ft 138 kts 259°
2026-05-06 18:57 50.08528 19.83882 1342 ft 138 kts 259°
2026-05-06 18:57 50.08325 19.82430 1145 ft 137 kts 258°
2026-05-06 18:58 50.08125 19.80983 958 ft 136 kts 258°
2026-05-06 18:58 50.07923 19.79551 815 ft 130 kts 258°
2026-05-06 18:58 50.07757 19.78367 807 ft 84 kts 257°
2026-05-06 18:58 50.07664 19.77694 804 ft 54 kts 259°
2026-05-06 18:59 50.07596 19.77265 807 ft 27 kts 274°
2026-05-06 18:59 50.07551 19.76936 808 ft 34 kts 243°
2026-05-06 18:59 50.07402 19.76874 805 ft 18 kts 163°
2026-05-06 18:59 50.07312 19.76968 805 ft 15 kts 78°